When you browse on this site, cookies collect data to enhance your experience and personalize the content and advertising you see.
Visit our Privacy Policy to learn more. By continuing to use the site, you agree to this use of cookies and data.
  • In Portugal
  • List of Countries
  • For 7 days
  • Water Temperature
  • Satellite Maps
  • Weather Map
  • Weather Widgets
  • user-avatar
    Login

    Hourly Weather Sari

    Today, 19 January, Saturday

    Time Temperature Precipitation Wind Pressure Humidity
    00:00 +6°C° 0.6 mm 1 mps 763 mmHg 83%
    01:00 +6°C° 0.6 mm 1 mps 763 mmHg 82%
    02:00 +6°C° 0.5 mm 1 mps 763 mmHg 81%
    03:00 +6°C° 0.5 mm 1 mps 763 mmHg 81%
    04:00 +6°C° 0 mm 1 mps 762 mmHg 81%
    05:00 +6°C° 0.5 mm 1 mps 762 mmHg 82%
    06:00 +6°C° 0.5 mm 1 mps 762 mmHg 82%
    07:00 +6°C° 0.5 mm 1 mps 762 mmHg 83%
    08:00 +6°C° 0.5 mm 1 mps 762 mmHg 80%
    09:00 +7°C° 0.5 mm 1 mps 762 mmHg 78%
    10:00 +7°C° 0.5 mm 1 mps 762 mmHg 76%
    11:00 +6°C° 0.2 mm 2 mps 762 mmHg 72%
    12:00 +7°C° 0.2 mm 2 mps 762 mmHg 68%
    13:00 +8°C° 0.2 mm 2 mps 761 mmHg 64%
    14:00 +8°C° 0 mm 2 mps 761 mmHg 60%
    15:00 +10°C° 0 mm 1 mps 761 mmHg 57%
    16:00 +10°C° 0 mm 1 mps 761 mmHg 53%
    17:00 +10°C° 0 mm 1 mps 761 mmHg 55%
    18:00 +9°C° 0 mm 1 mps 762 mmHg 58%
    19:00 +8°C° 0 mm 1 mps 762 mmHg 60%
    20:00 +7°C° 0 mm 2 mps 762 mmHg 59%
    21:00 +7°C° 0 mm 2 mps 763 mmHg 57%
    22:00 +6°C° 0 mm 2 mps 763 mmHg 56%
    23:00 +6°C° 0 mm 2 mps 763 mmHg 54%

    Tomorrow, 20 January, Sunday

    Time Temperature Precipitation Wind Pressure Humidity
    00:00 +6°C° 0 mm 2 mps 763 mmHg 52%
    01:00 +5°C° 0 mm 3 mps 763 mmHg 50%
    02:00 +5°C° 0 mm 3 mps 763 mmHg 50%
    03:00 +5°C° 0 mm 3 mps 763 mmHg 49%
    04:00 +6°C° 0 mm 2 mps 763 mmHg 49%
    05:00 +6°C° 0 mm 2 mps 763 mmHg 49%
    06:00 +6°C° 0 mm 2 mps 764 mmHg 50%
    07:00 +6°C° 0 mm 2 mps 764 mmHg 50%
    08:00 +7°C° 0 mm 2 mps 764 mmHg 48%
    09:00 +9°C° 0 mm 1 mps 764 mmHg 45%
    10:00 +10°C° 0 mm 1 mps 765 mmHg 43%
    11:00 +11°C° 0 mm 1 mps 764 mmHg 39%
    12:00 +12°C° 0 mm 1 mps 764 mmHg 35%
    13:00 +13°C° 0 mm 1 mps 764 mmHg 32%
    14:00 +13°C° 0 mm 2 mps 764 mmHg 34%
    15:00 +13°C° 0 mm 2 mps 764 mmHg 37%
    16:00 +13°C° 0 mm 2 mps 764 mmHg 40%
    17:00 +10°C° 0 mm 2 mps 764 mmHg 45%
    18:00 +10°C° 0 mm 1 mps 765 mmHg 49%
    19:00 +9°C° 0 mm 1 mps 765 mmHg 54%
    20:00 +9°C° 0 mm 1 mps 765 mmHg 54%
    21:00 +8°C° 0 mm 1 mps 765 mmHg 54%
    22:00 +8°C° 0 mm 1 mps 765 mmHg 54%
    23:00 +8°C° 0 mm 1 mps 765 mmHg 54%

    Day after tomorrow, 21 January, Monday

    Time Temperature Precipitation Wind Pressure Humidity
    00:00 +8°C° 0 mm 1 mps 765 mmHg 54%
    01:00 +7°C° 0 mm 1 mps 765 mmHg 54%
    02:00 +7°C° 0 mm 1 mps 765 mmHg 54%
    03:00 +7°C° 0 mm 1 mps 765 mmHg 54%
    04:00 +7°C° 0 mm 1 mps 765 mmHg 54%
    05:00 +7°C° 0 mm 1 mps 765 mmHg 54%
    06:00 +7°C° 0 mm 1 mps 765 mmHg 54%
    07:00 +6°C° 0 mm 1 mps 765 mmHg 54%
    08:00 +8°C° 0 mm 1 mps 765 mmHg 51%
    09:00 +9°C° 0 mm 1 mps 765 mmHg 48%
    10:00 +10°C° 0 mm 1 mps 765 mmHg 45%
    11:00 +11°C° 0 mm 1 mps 764 mmHg 44%
    12:00 +12°C° 0 mm 2 mps 764 mmHg 42%
    13:00 +12°C° 0 mm 3 mps 763 mmHg 41%
    14:00 +12°C° 0 mm 3 mps 763 mmHg 43%
    15:00 +12°C° 0 mm 3 mps 762 mmHg 44%
    16:00 +11°C° 0 mm 3 mps 762 mmHg 46%
    17:00 +10°C° 0 mm 2 mps 762 mmHg 49%
    18:00 +10°C° 0 mm 1 mps 762 mmHg 53%
    19:00 +9°C° 0 mm 1 mps 762 mmHg 57%
    20:00 +9°C° 0 mm 1 mps 762 mmHg 56%
    21:00 +9°C° 0 mm 1 mps 762 mmHg 56%
    22:00 +9°C° 0 mm 1 mps 762 mmHg 56%
    23:00 +8°C° 0 mm 0 mps 761 mmHg 56%

    22 January, Tuesday

    Time Temperature Precipitation Wind Pressure Humidity
    00:00 +7°C° 0 mm 0 mps 761 mmHg 55%
    01:00 +7°C° 0 mm 0 mps 761 mmHg 55%
    02:00 +7°C° 0 mm 0 mps 760 mmHg 54%
    03:00 +7°C° 0 mm 0 mps 760 mmHg 54%
    04:00 +8°C° 0 mm 1 mps 760 mmHg 53%
    05:00 +8°C° 0 mm 1 mps 760 mmHg 51%
    06:00 +8°C° 0 mm 1 mps 760 mmHg 50%
    07:00 +7°C° 0 mm 1 mps 760 mmHg 48%
    08:00 +9°C° 0 mm 1 mps 760 mmHg 44%
    09:00 +10°C° 0 mm 1 mps 760 mmHg 41%
    10:00 +11°C° 0 mm 0 mps 760 mmHg 37%
    11:00 +13°C° 0 mm 1 mps 760 mmHg 36%
    12:00 +13°C° 0 mm 1 mps 759 mmHg 34%
    13:00 +14°C° 0 mm 1 mps 759 mmHg 33%
    14:00 +14°C° 0 mm 1 mps 759 mmHg 35%
    15:00 +14°C° 0 mm 1 mps 759 mmHg 37%
    16:00 +14°C° 0 mm 1 mps 759 mmHg 39%
    17:00 +13°C° 0 mm 1 mps 759 mmHg 45%
    18:00 +11°C° 0 mm 1 mps 760 mmHg 50%
    19:00 +10°C° 0 mm 1 mps 760 mmHg 55%
    20:00 +10°C° 0 mm 1 mps 760 mmHg 54%
    21:00 +9°C° 0 mm 1 mps 761 mmHg 53%
    22:00 +9°C° 0 mm 1 mps 761 mmHg 52%
    23:00 +9°C° 0 mm 1 mps 761 mmHg 50%

    23 January, Wednesday

    Time Temperature Precipitation Wind Pressure Humidity
    00:00 +9°C° 0 mm 1 mps 761 mmHg 47%
    01:00 +7°C° 0 mm 2 mps 761 mmHg 45%
    02:00 +7°C° 0 mm 2 mps 761 mmHg 43%
    03:00 +7°C° 0 mm 2 mps 761 mmHg 41%
    04:00 +8°C° 0 mm 1 mps 761 mmHg 39%
    05:00 +7°C° 0 mm 2 mps 761 mmHg 38%
    06:00 +7°C° 0 mm 2 mps 761 mmHg 37%
    07:00 +7°C° 0 mm 2 mps 761 mmHg 35%
    08:00 +9°C° 0 mm 1 mps 761 mmHg 34%
    09:00 +11°C° 0 mm 1 mps 761 mmHg 32%
    10:00 +12°C° 0 mm 1 mps 762 mmHg 30%
    11:00 +13°C° 0 mm 1 mps 761 mmHg 30%
    12:00 +14°C° 0 mm 2 mps 761 mmHg 30%
    13:00 +14°C° 0 mm 3 mps 760 mmHg 30%
    14:00 +14°C° 0 mm 3 mps 760 mmHg 33%
    15:00 +14°C° 0 mm 3 mps 760 mmHg 36%
    16:00 +14°C° 0 mm 3 mps 760 mmHg 40%
    17:00 +13°C° 0 mm 2 mps 761 mmHg 44%
    18:00 +12°C° 0 mm 2 mps 761 mmHg 49%
    19:00 +10°C° 0 mm 1 mps 761 mmHg 53%
    20:00 +10°C° 0 mm 1 mps 762 mmHg 52%
    21:00 +10°C° 0 mm 1 mps 762 mmHg 51%
    22:00 +10°C° 0 mm 1 mps 762 mmHg 50%
    23:00 +9°C° 0 mm 1 mps 762 mmHg 49%

    24 January, Thursday

    Time Temperature Precipitation Wind Pressure Humidity
    00:00 +9°C° 0 mm 1 mps 762 mmHg 48%
    01:00 +9°C° 0 mm 1 mps 762 mmHg 47%
    02:00 +9°C° 0 mm 1 mps 762 mmHg 46%
    03:00 +9°C° 0 mm 1 mps 762 mmHg 45%
    04:00 +9°C° 0 mm 1 mps 761 mmHg 44%
    05:00 +9°C° 0 mm 1 mps 761 mmHg 43%
    06:00 +7°C° 0 mm 2 mps 761 mmHg 42%
    07:00 +7°C° 0 mm 2 mps 762 mmHg 42%
    08:00 +10°C° 0 mm 1 mps 762 mmHg 40%
    09:00 +12°C° 0 mm 1 mps 762 mmHg 38%
    10:00 +13°C° 0 mm 1 mps 762 mmHg 36%
    11:00 +14°C° 0 mm 1 mps 761 mmHg 35%
    12:00 +16°C° 0 mm 2 mps 761 mmHg 34%
    13:00 +17°C° 0 mm 2 mps 760 mmHg 33%
    14:00 +17°C° 0 mm 2 mps 760 mmHg 35%
    15:00 +16°C° 0 mm 2 mps 760 mmHg 37%
    16:00 +16°C° 0 mm 2 mps 759 mmHg 38%
    17:00 +15°C° 0 mm 2 mps 760 mmHg 41%
    18:00 +13°C° 0 mm 1 mps 760 mmHg 44%
    19:00 +12°C° 0 mm 1 mps 760 mmHg 46%
    20:00 +12°C° 0 mm 1 mps 760 mmHg 46%
    21:00 +11°C° 0 mm 1 mps 760 mmHg 45%
    22:00 +11°C° 0 mm 1 mps 760 mmHg 45%
    23:00 +11°C° 0 mm 1 mps 760 mmHg 44%
    Show more